Content
SEND FEEDBACK

Daily
Averages
Monthly
Summary
Canada

SCUDDER, ONTARIO


Home > North America > Canada > Ontario
Elevation: 574 feet     Latitude: 41 45N     Longitude: 082 40W

WEATHER
 
SELECT A DAY
Number of Records: 122,505;   Date Range: 12/10/00 - 7/28/14
 
SHARE

PRINT THIS DATA

[ ← Previous Day ]
WEATHER ALMANAC - OCTOBER 22, 2013
[ Next Day → ]
[ °C ]   °F
Weather ElementAverageHighLow
Temperature43.5 °F48.9 °F (4:00 pm)37.6 °F (5:00 am)
Dewpoint31 °F34.2 °F (1:00 am)28.8 °F (6:00 am)
Humidity60.4 %74 % (5:00 am)42 % (8:00 pm)
Barometer29.89 in29.94 in (10:00 am)29.85 in (1:00 am)
Wind Speed9 mph13.8 mph (10:00 am)
Wind Gust20.7 mph (1:00 am)
Weather ElementAverage
Wind DirectionW (272.2 °)

Weather ElementTotal
Precipitation---
Heating Degree Days21.8 (Base 65)
Averaged from 27 records on October 22, 2013
WEATHER CONDITIONS BREAKOUT
WIND DIRECTION BREAKOUT
WEATHER BY HOUR - OCTOBER 22, 2013
[ °C ]   °F
Local TimeTemperatureDewpointHumidityBarometerVisibilityWind DirectionWind SpeedGust SpeedPrecipitationEventsConditions
1:00 AM43.7 °F34.2 °F69 %29.85 inWest (280°)12.7 mph20.7 mph
2:00 AM42.0 °F34.0 °F63 %29.86 inWest (280°)9.2 mph
2:00 AM42.1 °F33.6 °F72 %29.86 inWest (280°)9.2 mph
3:00 AM41.5 °F31.5 °F67 %29.87 inWest (280°)11.5 mph17.3 mph
4:00 AM39.6 °F29.7 °F68 %29.88 inWest (280°)6.9 mph
5:00 AM37.6 °F30.0 °F74 %29.89 inWest (270°)4.6 mph
6:00 AM38.3 °F28.8 °F69 %29.90 inWest (280°)6.9 mph
7:00 AM39.0 °F30.0 °F70 %29.91 inWest (270°)8.1 mph
8:00 AM38.0 °F30.0 °F62 %29.91 inWest (280°)8.1 mph
8:00 AM38.1 °F29.7 °F72 %29.91 inWest (280°)8.1 mph
9:00 AM40.1 °F29.7 °F66 %29.93 inWest (270°)10.4 mph18.4 mph
10:00 AM41.7 °F31.5 °F67 %29.94 inWest (270°)13.8 mph20.7 mph
11:00 AM42.6 °F30.9 °F63 %29.94 inWest (270°)13.8 mph20.7 mph
12:00 PM44.8 °F31.5 °F60 %29.93 inWest (260°)12.7 mph19.6 mph
1:00 PM45.3 °F32.0 °F60 %29.93 inWest (260°)11.5 mph
2:00 PM47.0 °F33.0 °F45 %29.90 inWest (260°)11.5 mph
2:00 PM46.6 °F31.5 °F56 %29.90 inWest (260°)11.5 mph19.6 mph
3:00 PM48.2 °F32.0 °F54 %29.88 inWSW (250°)11.5 mph18.4 mph
4:00 PM48.9 °F31.8 °F52 %29.88 inWest (270°)8.1 mph
5:00 PM48.2 °F29.3 °F48 %29.87 inWest (270°)8.1 mph
6:00 PM47.7 °F29.3 °F49 %29.88 inWest (280°)4.6 mph
7:00 PM46.2 °F30.0 °F53 %29.87 inWest (270°)4.6 mph
8:00 PM46.0 °F30.0 °F42 %29.87 inWest (280°)4.6 mph
8:00 PM46.0 °F30.4 °F54 %29.87 inWest (280°)4.6 mph
9:00 PM46.0 °F31.1 °F56 %29.87 inWest (280°)4.6 mph
10:00 PM45.5 °F30.2 °F55 %29.87 inWest (260°)9.2 mph
11:00 PM43.3 °F32.0 °F64 %29.88 inWest (280°)11.5 mph18.4 mph
Hourly data recorded from CXHA, located miles away from Scudder, Ontario







STORIES FROM OUR PARTNERS